EW1898 Weather Reports


time (UTC)temp
F
wind
direction
speed
knots
gust
knots
rain 1hr
in
rain 24hr
in
rain mn
in
humidity
%
barometer
mb
20260506013006 68 295 0.0 1.7 0.00 0.00 0.00 57 1008.5
20260506011506 68 295 0.0 7.0 0.00 0.00 0.00 56 1008.5
20260506010005 69 261 0.0 1.7 0.00 0.00 0.00 55 1007.9
20260506004506 69 341 0.0 5.2 0.00 0.00 0.00 54 1007.8
20260506003005 70 275 0.0 3.5 0.00 0.00 0.00 53 1007.4
20260506001504 70 346 0.0 3.5 0.00 0.00 0.00 51 1007.0
20260506000001 71 336 0.0 2.6 0.00 0.00 0.00 50 1006.8
20260505234608 72 258 0.9 4.3 0.00 0.00 0.00 49 1006.6
20260505233102 73 80 0.0 5.2 0.00 0.00 0.00 48 1006.2
20260505231613 74 319 0.0 2.6 0.00 0.00 0.00 46 1006.1
20260505230109 75 293 0.9 4.3 0.00 0.00 0.00 44 1005.9
20260505224559 78 250 0.0 4.3 0.00 0.00 0.00 43 1005.8
20260505223058 78 7 0.0 3.5 0.00 0.00 0.00 42 1005.4
20260505221601 79 107 1.7 9.6 0.00 0.00 0.00 40 1004.8
20260505220057 79 281 0.9 9.6 0.00 0.00 0.00 39 1004.7
20260505214554 80 287 2.6 7.8 0.00 0.00 0.00 37 1004.8
20260505213054 82 242 0.0 8.7 0.00 0.00 0.00 34 1004.5
20260505211552 82 340 1.7 8.7 0.00 0.00 0.00 33 1004.5
20260505210051 83 49 1.7 12.2 0.00 0.00 0.00 33 1004.4
20260505204552 82 22 2.6 10.4 0.00 0.00 0.00 33 1004.2
20260505203057 82 354 0.9 7.0 0.00 0.00 0.00 35 1004.4
20260505201548 81 149 1.7 7.0 0.00 0.00 0.00 37 1004.6
20260505200048 83 307 2.6 7.8 0.00 0.00 0.00 34 1004.4
20260505194558 84 255 0.9 5.2 0.00 0.00 0.00 34 1004.5
20260505193040 84 343 1.7 7.0 0.00 0.00 0.00 35 1004.5
20260505191552 83 276 1.7 8.7 0.00 0.00 0.00 35 1004.9
20260505190039 83 340 1.7 8.7 0.00 0.00 0.00 36 1005.1
20260505184536 83 238 1.7 6.1 0.00 0.00 0.00 36 1005.2
20260505183031 83 16 1.7 7.0 0.00 0.00 0.00 36 1005.5
20260505181534 82 281 1.7 6.1 0.00 0.00 0.00 36 1005.8
20260505180038 82 286 0.9 7.8 0.00 0.00 0.00 37 1006.0
20260505174525 81 52 0.9 7.0 0.00 0.00 0.00 39 1006.1
20260505173025 81 248 0.9 8.7 0.00 0.00 0.00 41 1006.3
20260505171519 81 280 1.7 5.2 0.00 0.00 0.00 40 1006.5
20260505170020 80 23 0.9 4.3 0.00 0.00 0.00 44 1007.0
20260505164514 79 164 0.9 4.3 0.00 0.00 0.00 44 1007.1
20260505161515 79 269 0.0 6.1 0.00 0.00 0.00 43 1007.6
20260505124503 63 277 0.0 4.3 0.00 0.00 0.00 66 1009.0
20260505123103 61 249 0.9 4.3 0.00 0.00 0.00 67 1009.0
20260505121624 60 284 0.0 4.3 0.00 0.00 0.00 69 1009.1
20260505120053 60 303 0.0 2.6 0.00 0.00 0.00 72 1009.1
20260505114548 58 293 0.0 5.2 0.00 0.00 0.00 73 1009.2
20260505113048 57 284 0.0 0.9 0.00 0.00 0.00 75 1008.9
20260505111547 55 291 0.0 0.9 0.00 0.00 0.00 77 1008.9
20260505101540 53 273 0.0 0.0 0.00 0.00 0.00 80 1008.9
20260505100043 52 271 0.0 0.0 0.00 0.00 0.00 80 1008.9
20260505094533 52 271 0.0 0.0 0.00 0.00 0.00 79 1008.9
20260505093034 52 271 0.0 0.0 0.00 0.00 0.00 79 1009.0
20260505091536 52 205 0.0 0.9 0.00 0.00 0.00 79 1008.9
20260505090030 51 165 0.0 0.9 0.00 0.00 0.00 79 1008.9
20260505084528 51 165 0.0 0.0 0.00 0.00 0.00 79 1009.0
20260505083035 51 165 0.0 0.9 0.00 0.00 0.00 79 1009.1
20260505081529 51 165 0.0 0.9 0.00 0.00 0.00 78 1009.1
20260505080036 51 165 0.0 0.9 0.00 0.00 0.00 78 1009.0
20260505074523 51 165 0.0 0.9 0.00 0.00 0.00 77 1009.3
20260505073025 51 352 0.0 1.7 0.00 0.00 0.00 77 1009.3
20260505071532 51 341 0.0 1.7 0.00 0.00 0.00 78 1009.3
20260505070020 51 342 0.0 0.9 0.00 0.00 0.00 77 1009.5
20260505064518 51 339 0.0 1.7 0.00 0.00 0.00 77 1009.4
20260505063026 52 338 0.0 0.9 0.00 0.00 0.00 76 1009.5
20260505061515 52 338 0.0 0.9 0.00 0.00 0.00 74 1009.5
20260505060012 52 338 0.0 0.0 0.00 0.00 0.00 73 1009.6
20260505054511 52 338 0.0 0.0 0.00 0.00 0.00 73 1009.7
20260505053007 53 338 0.0 0.9 0.00 0.00 0.00 71 1009.8
20260505051506 53 338 0.0 0.9 0.00 0.00 0.00 70 1009.7
20260505041609 55 201 0.0 0.9 0.00 0.00 0.00 66 1009.7
20260505040054 55 154 0.0 0.9 0.00 0.00 0.00 65 1009.6
20260505034553 55 149 0.0 0.9 0.00 0.00 0.00 63 1009.5
20260505033152 56 89 0.0 0.9 0.00 0.00 0.00 61 1009.4
20260505031554 57 89 0.0 0.9 0.00 0.00 0.00 60 1009.5
20260505024556 58 1 0.0 0.9 0.00 0.00 0.00 58 1009.4
20260505023050 58 5 0.0 2.6 0.00 0.00 0.00 57 1009.4
20260505021555 59 261 0.0 1.7 0.00 0.00 0.00 56 1009.6
20260505014549 60 243 0.0 3.5 0.00 0.00 0.00 53 1009.3